Lafayette, IN

9:46 AM EDT on April 20, 2018 (GMT -0400)
Purdue Univ

Weather History for KLAF - January, 2013

Change the Weather History Date:

Saturday, January 19, 2013

  Actual Average Record
Temperature  
Mean Temperature 44 °F 26 °F  
Max Temperature 51 °F 34 °F 57 °F (2006)
Min Temperature 36 °F 19 °F -16 °F (1985)
Degree Days  
Heating Degree Days 21 39  
Month to date heating degree days 682 737  
Since 1 July heating degree days 2877 2912  
Cooling Degree Days 0 0  
Month to date cooling degree days 0 0  
Year to date cooling degree days 0 0  
Moisture  
Dew Point 29 °F    
Average Humidity 61    
Maximum Humidity 73    
Minimum Humidity 49    
Precipitation  
Precipitation 0.00 in 0.06 in 0.64 in (2017)
Month to date precipitation 2.06 1.19  
Year to date precipitation 2.06 1.19  
Sea Level Pressure  
Sea Level Pressure 29.97 in    
Wind  
Wind Speed 13 mph (SW)    
Max Wind Speed 23 mph    
Max Gust Speed 31 mph    
Visibility 10 miles    
Events      
T = Trace of Precipitation, MM = Missing Value Source: NWS Daily Summary

Daily Weather History Graph

Daily Weather History Graph

Search for Another Location

Airport or City:

Astronomy

Jan. 19, 2013 Rise Set
Actual Time 8:06 AM EST 5:50 PM EST
Civil Twilight 7:37 AM EST 6:20 PM EST
Nautical Twilight 7:03 AM EST 6:53 PM EST
Astronomical Twilight 6:31 AM EST 7:26 PM EST
Moon 12:16 PM EST (1/19) 1:40 AM EST (1/19)
Length of Visible Light 10h 43m
Length of Day
9h 44m
First Quarter, 57% of the Moon is Illuminated
Jan 19
First Quarter
Jan 26
Full
Feb 3
Last Quarter
Feb 10
New
Feb 17
First Quarter

Hourly Weather History & Observations

Time (EST) Temp. Windchill Dew Point Humidity Pressure Visibility Wind Dir Wind Speed Gust Speed Precip Events Conditions
12:54 AM 37.9 °F 30.5 °F 25.0 °F 60% 30.11 in 10.0 mi SW 11.5 mph 19.6 mph N/A   Clear
1:54 AM 37.9 °F 30.5 °F 25.0 °F 60% 30.10 in 10.0 mi SW 11.5 mph 18.4 mph N/A   Clear
2:54 AM 37.0 °F 29.3 °F 26.1 °F 65% 30.10 in 10.0 mi SW 11.5 mph 19.6 mph N/A   Clear
3:54 AM 37.9 °F 31.5 °F 26.1 °F 62% 30.09 in 10.0 mi WSW 9.2 mph 20.7 mph N/A   Clear
4:54 AM 37.9 °F 30.0 °F 26.1 °F 62% 30.07 in 10.0 mi SW 12.7 mph 18.4 mph N/A   Clear
5:54 AM 37.0 °F 31.0 °F 26.1 °F 65% 30.07 in 10.0 mi SW 8.1 mph - N/A   Clear
6:54 AM 37.0 °F 28.9 °F 26.1 °F 65% 30.06 in 10.0 mi SW 12.7 mph 23.0 mph N/A   Clear
7:54 AM 37.0 °F 29.8 °F 26.1 °F 65% 30.05 in 10.0 mi SW 10.4 mph 19.6 mph N/A   Clear
8:54 AM 37.9 °F 31.5 °F 26.1 °F 62% 30.04 in 10.0 mi SW 9.2 mph 18.4 mph N/A   Clear
9:54 AM 39.9 °F 32.1 °F 26.1 °F 58% 30.04 in 10.0 mi SW 13.8 mph 21.9 mph N/A   Clear
10:54 AM 43.0 °F 35.7 °F 27.0 °F 53% 30.02 in 10.0 mi SW 15.0 mph 23.0 mph N/A   Clear
11:54 AM 46.0 °F 39.6 °F 28.0 °F 50% 29.98 in 10.0 mi SW 15.0 mph 29.9 mph N/A   Clear
12:54 PM 48.0 °F - 30.0 °F 50% 29.94 in 10.0 mi SW 17.3 mph 27.6 mph N/A   Clear
1:54 PM 48.9 °F - 30.0 °F 48% 29.89 in 10.0 mi WSW 19.6 mph 28.8 mph N/A   Clear
2:54 PM 48.9 °F - 30.9 °F 50% 29.88 in 10.0 mi SW 17.3 mph 29.9 mph N/A   Clear
3:54 PM 48.9 °F - 32.0 °F 52% 29.86 in 10.0 mi SW 18.4 mph 27.6 mph N/A   Clear
4:54 PM 48.0 °F - 33.1 °F 56% 29.86 in 10.0 mi SW 11.5 mph 18.4 mph N/A   Clear
5:54 PM 46.0 °F 41.4 °F 33.1 °F 61% 29.85 in 10.0 mi SW 9.2 mph - N/A   Clear
6:54 PM 44.1 °F 39.0 °F 33.1 °F 65% 29.86 in 10.0 mi WSW 9.2 mph - N/A   Clear
7:54 PM 42.1 °F 35.2 °F 33.1 °F 70% 29.88 in 10.0 mi West 12.7 mph 17.3 mph N/A   Clear
8:54 PM 43.0 °F 36.8 °F 34.0 °F 71% 29.89 in 10.0 mi WSW 11.5 mph - N/A   Clear
9:54 PM 41.0 °F 35.8 °F 34.0 °F 76% 29.89 in 10.0 mi WSW 8.1 mph - N/A   Clear
10:54 PM 42.1 °F 35.2 °F 33.1 °F 70% 29.90 in 10.0 mi West 12.7 mph - N/A   Clear
11:54 PM 42.1 °F 33.3 °F 30.9 °F 65% 29.91 in 10.0 mi WNW 19.6 mph 31.1 mph N/A   Clear